DW8722 Weather Reports


time (UTC)temp
C
wind
direction
speed
KPH
gust
KPH
rain 1hr
cm
rain 24hr
cm
rain mn
cm
humidity
%
barometer
mb
20260831034043 26 169 0.0 0.0 0.00 0.00 0.00 61 1013.0
20260831033034 27 169 0.0 0.0 0.00 0.00 0.00 61 1013.0
20260831032022 27 169 0.0 0.0 0.00 0.00 0.00 59 1013.0
20260831030956 27 169 0.0 0.0 0.00 0.00 0.00 56 1013.0
20260831025958 27 169 0.0 0.0 0.00 0.00 0.00 56 1012.8
20260831024946 27 169 0.0 4.8 0.00 0.00 0.00 56 1012.7
20260831024008 28 165 0.0 0.0 0.00 0.00 0.00 54 1012.6
20260831023002 28 165 0.0 1.6 0.00 0.00 0.00 53 1012.4
20260831022013 28 170 0.0 1.6 0.00 0.00 0.00 53 1012.4
20260831021013 30 186 0.0 0.0 0.00 0.00 0.00 50 1012.2
20260831020035 30 186 0.0 0.0 0.00 0.00 0.00 48 1012.1
20260831015001 30 186 0.0 0.0 0.00 0.00 0.00 47 1012.0
20260831014014 31 187 0.0 1.6 0.00 0.00 0.00 46 1011.9
20260831011932 32 195 0.0 0.0 0.00 0.00 0.00 43 1011.8
20260831010913 33 195 1.6 6.4 0.00 0.00 0.00 41 1011.7
20260831005859 34 184 0.0 6.4 0.00 0.00 0.00 39 1011.7
20260831004903 35 159 0.0 0.0 0.00 0.00 0.00 37 1011.6
20260831003858 35 159 0.0 4.8 0.00 0.00 0.00 36 1011.5
20260831002908 36 146 0.0 3.2 0.00 0.00 0.00 35 1011.5
20260830235633 37 184 4.8 12.9 0.00 0.00 0.00 33 1011.7
20260830234630 37 157 4.8 17.7 0.00 0.00 0.00 33 1011.8
20260830233610 38 186 6.4 20.9 0.00 0.00 0.00 31 1011.7
20260830232601 38 180 6.4 20.9 0.00 0.00 0.00 32 1011.8
20260830231553 38 188 6.4 19.3 0.00 0.00 0.00 33 1011.9
20260830230526 38 198 6.4 19.3 0.00 0.00 0.00 32 1011.8
20260830225503 38 215 4.8 17.7 0.00 0.00 0.00 32 1011.7
20260830224428 38 138 9.7 17.7 0.00 0.00 0.00 32 1011.8
20260830223436 38 128 8.0 14.5 0.00 0.00 0.00 32 1011.9
20260830221338 38 170 12.9 25.7 0.00 0.00 0.00 32 1011.9
20260830220311 38 229 6.4 17.7 0.00 0.00 0.00 32 1011.8
20260830215326 38 121 4.8 16.1 0.00 0.00 0.00 32 1011.9
20260830211937 38 221 4.8 17.7 0.00 0.00 0.00 33 1012.3
20260830210907 38 82 8.0 22.5 0.00 0.00 0.00 33 1012.3
20260830205909 38 184 9.7 22.5 0.00 0.00 0.00 34 1012.4
20260830203751 38 202 8.0 20.9 0.00 0.00 0.00 35 1012.6
20260830202813 38 233 4.8 22.5 0.00 0.00 0.00 36 1012.8
20260830201756 38 205 12.9 22.5 0.00 0.00 0.00 35 1013.1
20260830200805 38 198 4.8 29.0 0.00 0.00 0.00 36 1013.2
20260830195802 37 223 11.3 29.0 0.00 0.00 0.00 36 1013.5
20260830194730 37 155 12.9 27.4 0.00 0.00 0.00 38 1013.6
20260830193717 37 182 9.7 30.6 0.00 0.00 0.00 37 1013.6
20260830192703 37 178 12.9 30.6 0.00 0.00 0.00 36 1013.8
20260830191713 37 236 11.3 27.4 0.00 0.00 0.00 37 1013.9
20260830190720 37 261 11.3 27.4 0.00 0.00 0.00 36 1014.0
20260830185651 37 198 12.9 29.0 0.00 0.00 0.00 38 1014.2
20260830183542 36 175 16.1 32.2 0.00 0.00 0.00 38 1014.5
20260830182528 36 225 16.1 25.7 0.00 0.00 0.00 38 1014.6
20260830181528 36 176 12.9 25.7 0.00 0.00 0.00 38 1014.7
20260830180517 36 182 14.5 29.0 0.00 0.00 0.00 40 1014.7
20260830175516 36 205 14.5 29.0 0.00 0.00 0.00 40 1014.9
20260830174501 36 182 12.9 29.0 0.00 0.00 0.00 42 1015.1
20260830173511 35 180 14.5 29.0 0.00 0.00 0.00 45 1015.2
20260830172459 35 176 14.5 27.4 0.00 0.00 0.00 45 1015.4
20260830171427 35 182 11.3 27.4 0.00 0.00 0.00 45 1015.5
20260830170359 35 179 9.7 24.1 0.00 0.00 0.00 49 1015.6
20260830163142 33 202 11.3 25.7 0.00 0.00 0.00 53 1015.8
20260830160955 32 208 11.3 22.5 0.00 0.00 0.00 55 1015.8
20260830154800 32 180 11.3 22.5 0.00 0.00 0.00 57 1015.8
20260830153814 31 257 9.7 20.9 0.00 0.00 0.00 58 1015.9
20260830152749 31 210 8.0 16.1 0.00 0.00 0.00 60 1015.9
20260830150629 30 193 9.7 19.3 0.00 0.00 0.00 63 1016.0
20260830145632 30 153 9.7 19.3 0.00 0.00 0.00 64 1015.9
20260830144614 30 224 9.7 19.3 0.00 0.00 0.00 64 1016.0
20260830143556 30 193 8.0 17.7 0.00 0.00 0.00 65 1016.0
20260830142605 29 188 9.7 17.7 0.00 0.00 0.00 66 1016.1
20260830140459 28 182 8.0 17.7 0.00 0.00 0.00 67 1016.1
20260830135458 28 201 4.8 14.5 0.00 0.00 0.00 68 1016.1
20260830134500 27 175 1.6 6.4 0.00 0.00 0.00 69 1016.1
20260830133438 26 152 1.6 6.4 0.00 0.00 0.00 71 1016.0
20260830132424 26 142 0.0 3.2 0.00 0.00 0.00 73 1015.9
20260830131357 25 148 1.6 4.8 0.00 0.00 0.00 75 1015.8
20260830130407 23 165 0.0 4.8 0.00 0.00 0.00 77 1015.8
20260830125409 23 121 0.0 3.2 0.00 0.00 0.00 79 1015.6
20260830124347 22 121 0.0 3.2 0.00 0.00 0.00 79 1015.6
20260830123357 22 125 0.0 1.6 0.00 0.00 0.00 78 1015.5
20260830122341 22 125 0.0 0.0 0.00 0.00 0.00 78 1015.3
20260830121328 22 125 0.0 0.0 0.00 0.00 0.00 77 1015.1
20260830120301 22 125 0.0 1.6 0.00 0.00 0.00 77 1015.0
20260830115229 22 125 0.0 0.0 0.00 0.00 0.00 76 1014.8
20260830114211 22 125 0.0 0.0 0.00 0.00 0.00 75 1014.7
20260830113223 22 125 0.0 0.0 0.00 0.00 0.00 75 1014.5
20260830112151 23 125 0.0 3.2 0.00 0.00 0.00 74 1014.4
20260830111146 23 126 1.6 3.2 0.00 0.00 0.00 74 1014.4
20260830110125 23 125 0.0 3.2 0.00 0.00 0.00 74 1014.4
20260830103959 23 125 0.0 0.0 0.00 0.00 0.00 72 1014.2
20260830103020 23 125 0.0 0.0 0.00 0.00 0.00 71 1014.2
20260830101953 23 125 0.0 0.0 0.00 0.00 0.00 70 1014.2
20260830101008 23 125 0.0 0.0 0.00 0.00 0.00 69 1014.2
20260830095939 23 125 0.0 1.6 0.00 0.00 0.00 68 1014.1
20260830093800 24 126 0.0 0.0 0.00 0.00 0.00 67 1014.1
20260830092806 25 126 1.6 4.8 0.00 0.00 0.00 65 1014.1
20260830091757 25 115 0.0 3.2 0.00 0.00 0.00 65 1014.1
20260830090726 25 115 0.0 8.0 0.00 0.00 0.00 64 1014.0
20260830085656 25 116 0.0 8.0 0.00 0.00 0.00 63 1014.1
20260830084635 25 96 0.0 3.2 0.00 0.00 0.00 63 1014.1
20260830083635 26 98 0.0 3.2 0.00 0.00 0.00 62 1014.2
20260830082612 26 100 0.0 1.6 0.00 0.00 0.00 61 1014.2
20260830081608 26 105 1.6 4.8 0.00 0.00 0.00 60 1014.2
20260830080557 26 117 1.6 11.3 0.00 0.00 0.00 60 1014.2
20260830075545 26 119 4.8 12.9 0.00 0.00 0.00 60 1014.3
20260830074550 26 128 4.8 12.9 0.00 0.00 0.00 60 1014.4
20260830073527 26 121 3.2 11.3 0.00 0.00 0.00 60 1014.5
20260830072546 26 116 4.8 12.9 0.00 0.00 0.00 60 1014.4
20260830070429 26 108 0.0 8.0 0.00 0.00 0.00 61 1014.5
20260830064251 26 145 1.6 4.8 0.00 0.00 0.00 59 1014.5
20260830063258 26 128 0.0 3.2 0.00 0.00 0.00 58 1014.5
20260830062239 27 128 1.6 6.4 0.00 0.00 0.00 57 1014.5
20260830061250 27 105 1.6 4.8 0.00 0.00 0.00 56 1014.3
20260830060302 27 102 1.6 4.8 0.00 0.00 0.00 55 1014.4
20260830055314 27 124 3.2 12.9 0.00 0.00 0.00 54 1014.3
20260830054317 28 124 4.8 12.9 0.00 0.00 0.00 54 1014.3
20260830053330 28 116 3.2 9.7 0.00 0.00 0.00 53 1014.4
20260830052258 28 122 4.8 11.3 0.00 0.00 0.00 52 1014.5
20260830051242 28 128 6.4 12.9 0.00 0.00 0.00 51 1014.4
20260830050228 28 112 6.4 12.9 0.00 0.00 0.00 51 1014.4
20260830045227 29 120 6.4 14.5 0.00 0.00 0.00 50 1014.4
20260830044230 29 138 6.4 14.5 0.00 0.00 0.00 49 1014.5
20260830043253 29 115 8.0 14.5 0.00 0.00 0.00 49 1014.4
20260830041059 28 116 8.0 19.3 0.00 0.00 0.00 50 1014.1
20260830040051 28 121 8.0 19.3 0.00 0.00 0.00 52 1014.2
20260830035105 27 95 4.8 8.0 0.00 0.00 0.00 55 1014.1